CST,Max TemperatureF,Mean TemperatureF,Min TemperatureF,Max Dew PointF,MeanDew PointF,Min DewpointF,Max Humidity, Mean Humidity, Min Humidity, Max Sea Level PressureIn, Mean Sea Level PressureIn, Min Sea Level PressureIn, Max VisibilityMiles, Mean VisibilityMiles, Min VisibilityMiles, Max Wind SpeedMPH, Mean Wind SpeedMPH, Max Gust SpeedMPH,PrecipitationIn, CloudCover, Events, WindDirDegrees
2012-10-1,89,83,77,76,75,73,89,70,58,29.86,29.78,29.71,10,7,6,12,5,,0.00,3,Thunderstorm,124
2012-10-2,87,81,75,77,75,73,84,72,62,29.90,29.86,29.80,12,7,5,15,6,,0.00,5,Thunderstorm,291
2012-10-3,86,82,78,76,75,73,89,79,65,30.01,29.96,29.92,10,7,6,20,5,,0.00,5,Rain-Thunderstorm,335
2012-10-4,86,80,74,77,75,72,89,79,70,30.04,29.98,29.92,11,6,3,14,5,,0.12,3,Rain-Thunderstorm,4
2012-10-5,86,82,77,77,74,70,89,79,66,29.98,29.92,29.86,10,7,3,14,5,,0.39,5,Rain,92
2012-10-6,86,82,77,77,75,72,89,76,70,29.89,29.87,29.83,6,6,6,7,3,,0.00,5,,224
2012-10-7,88,82,76,77,74,72,89,69,54,29.89,29.84,29.77,10,7,6,7,3,,0.00,3,,127
2012-10-8,89,81,73,75,73,72,83,70,53,29.95,29.90,29.83,15,8,6,12,4,,0.00,3,,29
2012-10-9,88,84,80,77,75,73,79,68,58,29.97,29.91,29.83,10,7,6,14,11,,0.00,5,,71
2012-10-10,86,80,74,75,74,73,89,77,65,29.99,29.90,29.83,12,6,1,14,7,,0.24,6,Rain,73
2012-10-11,88,82,77,77,75,73,79,72,60,29.98,29.92,29.86,12,7,6,20,15,,0.00,4,,89
2012-10-12,88,80,73,77,75,73,89,76,66,30.01,29.95,29.89,12,7,6,9,5,,0.04,4,,44
2012-10-13,88,82,77,75,72,70,89,71,53,29.98,29.93,29.89,10,6,4,16,6,,0.00,3,,45
2012-10-14,88,80,71,75,70,68,94,66,47,29.96,29.91,29.86,10,7,6,8,4,,0.00,3,,323
2012-10-15,84,80,76,75,73,72,84,73,64,29.95,29.88,29.83,10,6,1,29,9,,0.91,3,Rain-Tornado,275
2012-10-16,85,80,75,75,72,70,89,73,57,29.90,29.84,29.77,16,6,2,10,6,,0.71,6,Rain,288
2012-10-17,87,82,77,76,73,71,83,68,56,29.89,29.83,29.77,10,7,6,14,6,,0.00,3,,286
2012-10-18,88,80,73,77,74,72,89,72,58,29.87,29.82,29.77,10,7,6,7,4,,0.00,3,,58
2012-10-19,88,82,76,77,75,73,84,71,62,29.86,29.81,29.77,10,7,6,12,6,,0.00,3,,344
2012-10-20,81,76,72,77,75,73,94,86,76,29.89,29.81,29.74,11,6,1,12,4,,0.28,5,Rain-Thunderstorm,9
2012-10-21,84,80,75,76,75,73,89,78,67,29.90,29.84,29.77,10,7,6,16,11,,0.08,6,,87
2012-10-22,85,80,76,76,73,72,89,79,68,29.89,29.83,29.77,11,7,4,14,6,,0.20,6,Rain,3
2012-10-23,83,79,75,75,73,70,94,83,69,29.82,29.76,29.71,7,6,3,10,3,,0.00,6,Rain,307
2012-10-24,87,79,71,77,74,72,94,79,68,29.83,29.76,29.71,7,5,2,14,6,,0.83,5,Rain,324
2012-10-25,84,81,75,75,73,70,89,75,62,29.83,29.80,29.74,9,6,6,12,5,,0.00,4,,293
2012-10-26,86,78,70,73,71,68,89,68,56,29.88,29.83,29.80,16,8,6,13,6,,0.00,2,,274
2012-10-27,86,79,72,73,71,68,89,71,58,29.92,29.87,29.83,10,7,6,14,5,,0.00,3,,306
2012-10-28,86,79,72,73,71,70,94,75,58,29.95,29.92,29.89,16,7,1,12,5,,0.16,5,,275
2012-10-29,83,78,72,73,71,66,84,74,62,30.01,29.95,29.89,10,6,3,14,7,26,0.28,5,Rain,319
2012-10-30,85,78,70,68,67,64,88,62,47,30.04,29.99,29.95,10,7,6,12,6,,0.00,3,,337
2012-10-31,85,78,70,70,66,63,83,60,37,30.04,30.00,29.95,10,7,6,12,4,,0.00,2,,30